Location: Street
(51.1247°N, 2.7429°W)
Time: 15:37:32
(UTC+00:00)

SR - Pass Details

Date: 27 November 2020
Orbit: 575 x 880 km, 66.7° (Epoch: 26 January)

Event Time Altitude Azimuth Distance (km) Brightness Sun altitude
Rises 19:29:58 0° 218° (SW) 2,813 ? -30.6°
Reaches altitude 10° 19:32:08 10° 220° (SW) 1,940 ? -31.0°
Enters shadow 19:33:23 19° 221° (SW) 1,453 ? -31.2°
Maximum altitude 19:36:29 83° 309° (NW) 641 - -31.6°
Drops below altitude 10° 19:41:13 10° 37° (NE) 2,104 - -32.4°
Sets 19:43:39 0° 38° (NE) 3,073 - -32.8°
